Погода в Старице

Россия / Астраханская область     48°13′09″N   45°56′37″E
темп.,
°C
ветер,
м/с
пор.,
м/с
влажн.,
%
обл.,
%
осадки,
мм/ч
давл.,
гПа
погр.,
м
29 июля, чт
чт2901:00+26в453173 0.0 101360
04:00+24в3337100 0.0 101330
07:00+25вюв333431 0.0 101393
10:00+32ю2222100 0.0 1013880
13:00+35зюз431838 0.0 10123633
16:00+36юз441712 0.0 10103781
19:00+34юз4419100 0.0 10091601
22:00+31зюз3522100 0.0 101099
30 июля, пт
пт3001:00+29зюз352674 0.0 101082
04:00+25зсз33314 0.0 101124
07:00+27юз34310 0.0 1011101
10:00+33зюз55220 0.0 10111068
13:00+36юз65151 0.0 10113535
16:00+36юз5514100 0.0 10103635
19:00+35юз441625 0.0 10092603
22:00+29ююз442418 0.0 100949
31 июля, сб
сб3101:00+27ю46270 0.0 101091
04:00+25юз48315 0.0 1010143
07:00+26ююз37325 0.0 1010185
10:00+34юз44203 0.0 1010877
13:00+36ююз44175 0.0 10103434
16:00+37ююз53150 0.0 10093634
19:00+35ююз44140 0.0 10091780
22:00+29ююз33180 0.0 101032
1 августа, вс
вс101:00+27юз11200 0.0 101012
04:00+25всв11250 0.0 101011
07:00+27ююв23272 0.0 101178
10:00+34ююз22190 0.0 1012778
13:00+37юз22160 0.0 10113564
16:00+39юз32133 0.0 10103969
19:00+37зюз321417 0.0 10091886
22:00+30ю22200 0.0 101112
2 августа, пн
пн201:00+29ю22210 0.0 101011
04:00+27ю33220 0.0 101028
07:00+28юз12280 0.0 101139
10:00+35ююв11170 0.0 1011737
13:00+39ююв44120 0.0 10103874
16:00+40ю65121 0.0 10094099
19:00+38ю35142 0.0 10093958
22:00+32юв232160 0.0 100917